Location: G�ndlingen
(48.0142°N, 7.6396°E)
Time: 18:01:44
(UTC+00:00)

Cosmos 44 - Pass Details

Date: 05 July 2020
Orbit: 586 x 776 km, 65.1° (Epoch: 13 August)

Event Time Altitude Azimuth Distance (km) Brightness Sun altitude
Exits shadow 22:05:19 20° 110° (ESE) 1,397 4.5 -16.6°
Drops below altitude 10° 22:08:22 10° 66° (ENE) 1,951 5.7 -16.7°
Sets 22:11:08 0° 49° (NE) 2,884 6.8 -16.9°
